TimeMST,TemperatureF,Dew PointF,Humidity,Sea Level PressureIn,VisibilityMPH,Wind Direction,Wind SpeedMPH,Gust SpeedMPH,PrecipitationIn,Events,Conditions,WindDirDegrees,DateUTC
12:15 AM,23.0,15.8,74,29.83,10.0,NNW,8.1,-,N/A,,Scattered Clouds,330,2013-02-19 07:15:00
12:35 AM,23.0,15.8,74,29.83,10.0,NW,8.1,-,N/A,,Clear,320,2013-02-19 07:35:00
12:55 AM,23.0,15.8,74,29.83,10.0,NNW,6.9,-,N/A,,Clear,330,2013-02-19 07:55:00
1:15 AM,23.0,15.8,74,29.83,10.0,NNW,8.1,-,N/A,,Scattered Clouds,340,2013-02-19 08:15:00
1:35 AM,23.0,14.0,68,29.81,10.0,NW,11.5,-,N/A,,Scattered Clouds,320,2013-02-19 08:35:00
1:55 AM,23.0,14.0,68,29.81,10.0,NW,10.4,-,N/A,,Scattered Clouds,320,2013-02-19 08:55:00
2:15 AM,23.0,14.0,68,29.80,10.0,NW,10.4,16.1,N/A,,Mostly Cloudy,320,2013-02-19 09:15:00
2:35 AM,23.0,14.0,68,29.79,10.0,NW,9.2,-,N/A,,Mostly Cloudy,320,2013-02-19 09:35:00
2:55 AM,23.0,14.0,68,29.79,10.0,NNW,11.5,-,N/A,,Mostly Cloudy,330,2013-02-19 09:55:00
3:15 AM,23.0,14.0,68,29.77,10.0,NNW,10.4,-,N/A,,Mostly Cloudy,330,2013-02-19 10:15:00
3:35 AM,23.0,14.0,68,29.76,10.0,NNW,9.2,-,N/A,,Mostly Cloudy,340,2013-02-19 10:35:00
3:55 AM,23.0,12.2,63,29.75,10.0,NNW,9.2,-,N/A,,Mostly Cloudy,330,2013-02-19 10:55:00
4:15 AM,23.0,12.2,63,29.75,10.0,NW,11.5,-,N/A,,Overcast,320,2013-02-19 11:15:00
4:35 AM,23.0,12.2,63,29.74,10.0,NW,11.5,-,N/A,,Overcast,320,2013-02-19 11:35:00
4:55 AM,23.0,12.2,63,29.73,10.0,NNW,10.4,-,N/A,,Overcast,330,2013-02-19 11:55:00
5:15 AM,23.0,12.2,63,29.73,10.0,NW,9.2,-,N/A,,Overcast,320,2013-02-19 12:15:00
5:35 AM,23.0,12.2,63,29.73,10.0,NNW,11.5,-,N/A,,Overcast,330,2013-02-19 12:35:00
5:55 AM,23.0,12.2,63,29.72,10.0,NW,10.4,-,N/A,,Overcast,320,2013-02-19 12:55:00
6:47 AM,24.8,12.2,59,29.72,10.0,WNW,8.1,-,N/A,,Overcast,290,2013-02-19 13:47:00
7:47 AM,24.8,12.2,59,29.72,10.0,NW,5.8,-,N/A,,Overcast,310,2013-02-19 14:47:00
8:47 AM,24.8,12.2,59,29.73,3.0,Calm,Calm,-,N/A,Snow,Light Snow,0,2013-02-19 15:47:00
9:00 AM,24.8,15.8,69,29.73,2.0,Calm,Calm,-,N/A,Snow,Light Snow,0,2013-02-19 16:00:00
9:47 AM,24.8,15.8,69,29.72,1.0,NW,9.2,-,N/A,Snow,Light Snow,310,2013-02-19 16:47:00
10:16 AM,24.8,-9999,N/A,29.72,6.0,NW,8.1,-,N/A,Snow,Light Snow,310,2013-02-19 17:16:00
10:51 AM,26.6,21.2,80,29.71,4.0,NW,8.1,-,N/A,Snow,Light Snow,310,2013-02-19 17:51:00
11:30 AM,28.4,24.8,86,29.70,7.0,NW,8.1,-,N/A,,Mostly Cloudy,310,2013-02-19 18:30:00
11:52 AM,30.2,24.8,80,29.70,10.0,WNW,8.1,-,N/A,,Scattered Clouds,290,2013-02-19 18:52:00
12:47 PM,32.0,24.8,75,29.67,10.0,WNW,5.8,-,N/A,,Scattered Clouds,300,2013-02-19 19:47:00
1:56 PM,35.6,26.6,70,29.65,10.0,Calm,Calm,-,N/A,,Mostly Cloudy,0,2013-02-19 20:56:00
2:50 PM,35.6,24.8,65,29.64,10.0,SE,4.6,-,N/A,,Mostly Cloudy,140,2013-02-19 21:50:00
3:47 PM,35.6,24.8,65,29.64,10.0,SE,4.6,-,N/A,,Overcast,130,2013-02-19 22:47:00
5:47 PM,33.8,24.8,70,29.64,10.0,SE,5.8,-,N/A,,Mostly Cloudy,130,2013-02-20 00:47:00
6:48 PM,32.0,24.8,75,29.64,10.0,Calm,Calm,-,N/A,,Overcast,0,2013-02-20 01:48:00
7:47 PM,30.2,24.8,80,29.65,10.0,WNW,4.6,-,N/A,,Mostly Cloudy,300,2013-02-20 02:47:00
9:47 PM,30.2,24.8,80,29.64,10.0,WNW,9.2,-,N/A,,Overcast,290,2013-02-20 04:47:00
10:15 PM,32.0,26.6,80,29.64,10.0,NW,8.1,-,N/A,,Overcast,310,2013-02-20 05:15:00
10:35 PM,32.0,26.6,80,29.64,10.0,NNW,11.5,-,N/A,,Overcast,330,2013-02-20 05:35:00
10:55 PM,32.0,26.6,80,29.64,10.0,NW,11.5,-,N/A,,Overcast,320,2013-02-20 05:55:00
11:15 PM,32.0,26.6,80,29.64,10.0,NNW,12.7,-,N/A,,Overcast,330,2013-02-20 06:15:00
11:35 PM,32.0,26.6,80,29.64,10.0,NNW,11.5,-,N/A,,Overcast,330,2013-02-20 06:35:00
11:55 PM,32.0,26.6,80,29.64,10.0,NW,10.4,-,N/A,,Overcast,320,2013-02-20 06:55:00